| time (UTC) | temp C | wind direction | speed KPH | gust KPH | rain 1hr cm | rain 24hr cm | rain mn cm | humidity % | barometer mb |
| 20260510231742 | 13 | 283 | 3.2 | 8.0 | 0.00 | 0.00 | 0.00 | 38 | 993.7 |
| 20260510231240 | 13 | 238 | 4.8 | 4.8 | 0.00 | 0.00 | 0.00 | 38 | 993.9 |
| 20260510230736 | 12 | 26 | 1.6 | 4.8 | 0.00 | 0.00 | 0.00 | 39 | 993.8 |
| 20260510230231 | 12 | 297 | 3.2 | 4.8 | 0.00 | 0.00 | 0.00 | 40 | 994.1 |
| 20260510225729 | 12 | 294 | 0.0 | 8.0 | 0.00 | 0.00 | 0.00 | 40 | 994.0 |
| 20260510225229 | 12 | 239 | 3.2 | 8.0 | 0.00 | 0.00 | 0.00 | 38 | 993.7 |
| 20260510224725 | 12 | 276 | 4.8 | 8.0 | 0.00 | 0.00 | 0.00 | 37 | 993.8 |
| 20260510224221 | 12 | 34 | 6.4 | 6.4 | 0.00 | 0.00 | 0.00 | 38 | 993.7 |
| 20260510223719 | 13 | 345 | 0.0 | 8.0 | 0.00 | 0.00 | 0.00 | 37 | 993.8 |
| 20260510223216 | 13 | 0 | 1.6 | 3.2 | 0.00 | 0.00 | 0.00 | 38 | 993.7 |
| 20260510222713 | 13 | 345 | 0.0 | 3.2 | 0.00 | 0.00 | 0.00 | 37 | 993.6 |
| 20260510222210 | 13 | 23 | 0.0 | 8.0 | 0.00 | 0.00 | 0.00 | 37 | 993.8 |
| 20260510221705 | 13 | 254 | 0.0 | 3.2 | 0.00 | 0.00 | 0.00 | 37 | 993.5 |
| 20260510221203 | 13 | 236 | 0.0 | 8.0 | 0.00 | 0.00 | 0.00 | 36 | 993.6 |
| 20260510220700 | 13 | 262 | 0.0 | 4.8 | 0.00 | 0.00 | 0.00 | 36 | 993.5 |
| 20260510220159 | 13 | 165 | 0.0 | 4.8 | 0.00 | 0.00 | 0.00 | 36 | 993.6 |
| 20260510215657 | 13 | 208 | 3.2 | 4.8 | 0.00 | 0.00 | 0.00 | 36 | 993.4 |
| 20260510215155 | 13 | 285 | 0.0 | 4.8 | 0.00 | 0.00 | 0.00 | 36 | 993.4 |
| 20260510214652 | 13 | 23 | 0.0 | 8.0 | 0.00 | 0.00 | 0.00 | 35 | 993.4 |
| 20260510214148 | 13 | 235 | 3.2 | 6.4 | 0.00 | 0.00 | 0.00 | 35 | 993.4 |
| 20260510213645 | 13 | 180 | 0.0 | 6.4 | 0.00 | 0.00 | 0.00 | 36 | 993.2 |
| 20260510213142 | 13 | 277 | 1.6 | 6.4 | 0.00 | 0.00 | 0.00 | 34 | 993.2 |
| 20260510212638 | 13 | 285 | 0.0 | 3.2 | 0.00 | 0.00 | 0.00 | 35 | 993.1 |
| 20260510212136 | 13 | 233 | 4.8 | 4.8 | 0.00 | 0.00 | 0.00 | 35 | 993.0 |
| 20260510211633 | 13 | 275 | 3.2 | 4.8 | 0.00 | 0.00 | 0.00 | 34 | 993.0 |
| 20260510211133 | 13 | 5 | 1.6 | 3.2 | 0.00 | 0.00 | 0.00 | 34 | 993.1 |
| 20260510210630 | 13 | 333 | 4.8 | 4.8 | 0.00 | 0.00 | 0.00 | 34 | 992.9 |
| 20260510210125 | 13 | 300 | 0.0 | 4.8 | 0.00 | 0.00 | 0.00 | 35 | 992.8 |
| 20260510205624 | 13 | 18 | 4.8 | 6.4 | 0.00 | 0.00 | 0.00 | 34 | 992.9 |
| 20260510205120 | 13 | 227 | 0.0 | 9.7 | 0.00 | 0.00 | 0.00 | 34 | 992.9 |
| 20260510204616 | 13 | 180 | 0.0 | 4.8 | 0.00 | 0.00 | 0.00 | 34 | 992.9 |
| 20260510204113 | 13 | 210 | 6.4 | 9.7 | 0.00 | 0.00 | 0.00 | 34 | 992.9 |
| 20260510203610 | 13 | 259 | 3.2 | 6.4 | 0.00 | 0.00 | 0.00 | 37 | 993.0 |
| 20260510203107 | 13 | 90 | 1.6 | 8.0 | 0.00 | 0.00 | 0.00 | 33 | 993.0 |
| 20260510202606 | 14 | 318 | 4.8 | 8.0 | 0.00 | 0.00 | 0.00 | 33 | 993.0 |
| 20260510202102 | 13 | 28 | 4.8 | 11.3 | 0.00 | 0.00 | 0.00 | 33 | 992.9 |
| 20260510201600 | 13 | 90 | 3.2 | 4.8 | 0.00 | 0.00 | 0.00 | 34 | 993.2 |
| 20260510201057 | 13 | 300 | 1.6 | 8.0 | 0.00 | 0.00 | 0.00 | 35 | 993.1 |
| 20260510200552 | 13 | 289 | 3.2 | 8.0 | 0.00 | 0.00 | 0.00 | 32 | 993.0 |
| 20260510200050 | 13 | 300 | 1.6 | 9.7 | 0.00 | 0.00 | 0.00 | 34 | 993.3 |
| 20260510195548 | 13 | 117 | 3.2 | 6.4 | 0.00 | 0.00 | 0.00 | 35 | 993.2 |
| 20260510195044 | 14 | 221 | 3.2 | 12.9 | 0.00 | 0.00 | 0.00 | 33 | 993.4 |
| 20260510194539 | 13 | 327 | 3.2 | 8.0 | 0.00 | 0.00 | 0.00 | 35 | 993.4 |
| 20260510194035 | 13 | 290 | 0.0 | 6.4 | 0.00 | 0.00 | 0.00 | 36 | 993.3 |
| 20260510193530 | 13 | 289 | 1.6 | 11.3 | 0.00 | 0.00 | 0.00 | 35 | 993.2 |
| 20260510193026 | 13 | 12 | 0.0 | 6.4 | 0.00 | 0.00 | 0.00 | 35 | 993.4 |
| 20260510192526 | 13 | 324 | 3.2 | 4.8 | 0.00 | 0.00 | 0.00 | 34 | 993.4 |
| 20260510192023 | 13 | 332 | 3.2 | 8.0 | 0.00 | 0.00 | 0.00 | 34 | 993.5 |
| 20260510191519 | 13 | 321 | 0.0 | 12.9 | 0.00 | 0.00 | 0.00 | 34 | 993.5 |
| 20260510191016 | 13 | 115 | 3.2 | 8.0 | 0.00 | 0.00 | 0.00 | 34 | 993.4 |
| 20260510190514 | 13 | 239 | 4.8 | 6.4 | 0.00 | 0.00 | 0.00 | 35 | 993.5 |
| 20260510190010 | 14 | 219 | 4.8 | 6.4 | 0.00 | 0.00 | 0.00 | 35 | 993.6 |
| 20260510185507 | 13 | 227 | 4.8 | 6.4 | 0.00 | 0.00 | 0.00 | 36 | 993.5 |
| 20260510185004 | 12 | 276 | 4.8 | 8.0 | 0.00 | 0.00 | 0.00 | 35 | 993.3 |
| 20260510184502 | 13 | 300 | 4.8 | 8.0 | 0.00 | 0.00 | 0.00 | 33 | 993.3 |
| 20260510184002 | 12 | 7 | 0.0 | 6.4 | 0.00 | 0.00 | 0.00 | 35 | 993.3 |
| 20260510183458 | 13 | 180 | 0.0 | 4.8 | 0.00 | 0.00 | 0.00 | 36 | 993.3 |
| 20260510182953 | 12 | 310 | 0.0 | 4.8 | 0.00 | 0.00 | 0.00 | 35 | 993.2 |
| 20260510182449 | 13 | 229 | 4.8 | 6.4 | 0.00 | 0.00 | 0.00 | 34 | 993.3 |
| 20260510181945 | 13 | 203 | 1.6 | 6.4 | 0.00 | 0.00 | 0.00 | 33 | 993.0 |
| 20260510181444 | 14 | 257 | 3.2 | 8.0 | 0.00 | 0.00 | 0.00 | 35 | 993.3 |
| 20260510180939 | 13 | 231 | 4.8 | 8.0 | 0.00 | 0.00 | 0.00 | 35 | 993.1 |
| 20260510180436 | 13 | 352 | 0.0 | 6.4 | 0.00 | 0.00 | 0.00 | 35 | 993.0 |
| 20260510175933 | 12 | 17 | 6.4 | 8.0 | 0.00 | 0.00 | 0.00 | 33 | 993.0 |
| 20260510175429 | 13 | 352 | 4.8 | 6.4 | 0.00 | 0.00 | 0.00 | 34 | 993.0 |
| 20260510174925 | 13 | 294 | 0.0 | 6.4 | 0.00 | 0.00 | 0.00 | 33 | 993.0 |
| 20260510174423 | 12 | 235 | 11.3 | 14.5 | 0.00 | 0.00 | 0.00 | 34 | 992.8 |
| 20260510173919 | 13 | 93 | 4.8 | 8.0 | 0.00 | 0.00 | 0.00 | 34 | 992.9 |
| 20260510173415 | 13 | 45 | 3.2 | 12.9 | 0.00 | 0.00 | 0.00 | 35 | 992.8 |
| 20260510172912 | 13 | 278 | 3.2 | 8.0 | 0.00 | 0.00 | 0.00 | 33 | 993.0 |
| 20260510172408 | 14 | 260 | 0.0 | 8.0 | 0.00 | 0.00 | 0.00 | 33 | 992.8 |
| 20260510171903 | 13 | 257 | 3.2 | 6.4 | 0.00 | 0.00 | 0.00 | 34 | 993.0 |
| 20260510171401 | 13 | 61 | 11.3 | 12.9 | 0.00 | 0.00 | 0.00 | 32 | 993.0 |
| 20260510170858 | 13 | 296 | 6.4 | 9.7 | 0.00 | 0.00 | 0.00 | 33 | 993.3 |
| 20260510170355 | 13 | 207 | 9.7 | 16.1 | 0.00 | 0.00 | 0.00 | 34 | 993.2 |
| 20260510165850 | 12 | 239 | 4.8 | 9.7 | 0.00 | 0.00 | 0.00 | 36 | 993.0 |
| 20260510165347 | 13 | 279 | 0.0 | 6.4 | 0.00 | 0.00 | 0.00 | 37 | 993.0 |
| 20260510164844 | 13 | 219 | 6.4 | 6.4 | 0.00 | 0.00 | 0.00 | 36 | 992.9 |
| 20260510164341 | 13 | 40 | 8.0 | 8.0 | 0.00 | 0.00 | 0.00 | 36 | 992.9 |
| 20260510163840 | 13 | 50 | 4.8 | 8.0 | 0.00 | 0.00 | 0.00 | 36 | 993.3 |
| 20260510163338 | 13 | 282 | 4.8 | 12.9 | 0.00 | 0.00 | 0.00 | 35 | 993.0 |
| 20260510162831 | 13 | 267 | 4.8 | 14.5 | 0.00 | 0.00 | 0.00 | 37 | 992.9 |
| 20260510162329 | 13 | 175 | 4.8 | 8.0 | 0.00 | 0.00 | 0.00 | 36 | 993.2 |
| 20260510161824 | 12 | 323 | 3.2 | 8.0 | 0.00 | 0.00 | 0.00 | 36 | 993.0 |
| 20260510161320 | 12 | 286 | 0.0 | 6.4 | 0.00 | 0.00 | 0.00 | 36 | 993.0 |
| 20260510160818 | 13 | 222 | 4.8 | 6.4 | 0.00 | 0.00 | 0.00 | 39 | 993.1 |
| 20260510160315 | 12 | 180 | 1.6 | 11.3 | 0.00 | 0.00 | 0.00 | 38 | 992.8 |
| 20260510155809 | 12 | 233 | 3.2 | 8.0 | 0.00 | 0.00 | 0.00 | 40 | 993.0 |
| 20260510155306 | 12 | 308 | 6.4 | 8.0 | 0.00 | 0.00 | 0.00 | 36 | 992.9 |
| 20260510154802 | 12 | 279 | 3.2 | 9.7 | 0.00 | 0.00 | 0.00 | 36 | 992.8 |
| 20260510154258 | 12 | 262 | 4.8 | 8.0 | 0.00 | 0.00 | 0.00 | 37 | 992.9 |
| 20260510153758 | 12 | 299 | 3.2 | 8.0 | 0.00 | 0.00 | 0.00 | 37 | 992.7 |
| 20260510153254 | 12 | 285 | 4.8 | 8.0 | 0.00 | 0.00 | 0.00 | 38 | 992.9 |
| 20260510152751 | 12 | 218 | 11.3 | 11.3 | 0.00 | 0.00 | 0.00 | 40 | 992.6 |
| 20260510152248 | 11 | 45 | 0.0 | 6.4 | 0.00 | 0.00 | 0.00 | 41 | 992.7 |
| 20260510151744 | 11 | 215 | 0.0 | 9.7 | 0.00 | 0.00 | 0.00 | 42 | 992.6 |
| 20260510151242 | 11 | 23 | 1.6 | 6.4 | 0.00 | 0.00 | 0.00 | 40 | 992.6 |
| 20260510150738 | 11 | 243 | 0.0 | 6.4 | 0.00 | 0.00 | 0.00 | 40 | 992.8 |
| 20260510150234 | 11 | 199 | 3.2 | 8.0 | 0.00 | 0.00 | 0.00 | 42 | 992.5 |
| 20260510145730 | 12 | 290 | 4.8 | 8.0 | 0.00 | 0.00 | 0.00 | 42 | 992.4 |
| 20260510145227 | 11 | 70 | 3.2 | 6.4 | 0.00 | 0.00 | 0.00 | 41 | 992.5 |
| 20260510144722 | 12 | 197 | 4.8 | 6.4 | 0.00 | 0.00 | 0.00 | 41 | 992.5 |
| 20260510144220 | 12 | 315 | 3.2 | 4.8 | 0.00 | 0.00 | 0.00 | 39 | 992.4 |
| 20260510143714 | 12 | 315 | 0.0 | 4.8 | 0.00 | 0.00 | 0.00 | 40 | 992.1 |
| 20260510143211 | 11 | 234 | 1.6 | 4.8 | 0.00 | 0.00 | 0.00 | 43 | 992.3 |
| 20260510142707 | 11 | 286 | 0.0 | 6.4 | 0.00 | 0.00 | 0.00 | 42 | 992.2 |
| 20260510142204 | 11 | 237 | 0.0 | 4.8 | 0.00 | 0.00 | 0.00 | 43 | 992.2 |
| 20260510141701 | 10 | 47 | 4.8 | 9.7 | 0.00 | 0.00 | 0.00 | 43 | 992.3 |
| 20260510141200 | 10 | 39 | 4.8 | 6.4 | 0.00 | 0.00 | 0.00 | 42 | 992.0 |
| 20260510140655 | 10 | 287 | 3.2 | 4.8 | 0.00 | 0.00 | 0.00 | 43 | 992.2 |
| 20260510140155 | 10 | 270 | 3.2 | 8.0 | 0.00 | 0.00 | 0.00 | 41 | 992.1 |
| 20260510135650 | 10 | 332 | 0.0 | 8.0 | 0.00 | 0.00 | 0.00 | 42 | 992.0 |
| 20260510135146 | 9 | 294 | 1.6 | 11.3 | 0.00 | 0.00 | 0.00 | 44 | 991.9 |
| 20260510134644 | 10 | 233 | 0.0 | 4.8 | 0.00 | 0.00 | 0.00 | 45 | 991.9 |
| 20260510134141 | 9 | 10 | 0.0 | 8.0 | 0.00 | 0.00 | 0.00 | 43 | 991.9 |
| 20260510133637 | 9 | 266 | 3.2 | 9.7 | 0.00 | 0.00 | 0.00 | 43 | 992.0 |
| 20260510133132 | 9 | 297 | 3.2 | 6.4 | 0.00 | 0.00 | 0.00 | 44 | 992.0 |
| 20260510132629 | 10 | 197 | 3.2 | 3.2 | 0.00 | 0.00 | 0.00 | 45 | 992.0 |
| 20260510132127 | 10 | 206 | 0.0 | 3.2 | 0.00 | 0.00 | 0.00 | 48 | 991.8 |
| 20260510131624 | 8 | 303 | 0.0 | 4.8 | 0.00 | 0.00 | 0.00 | 51 | 991.8 |
| 20260510131121 | 8 | 356 | 0.0 | 6.4 | 0.00 | 0.00 | 0.00 | 48 | 991.7 |
| 20260510130618 | 9 | 228 | 0.0 | 3.2 | 0.00 | 0.00 | 0.00 | 50 | 991.9 |
| 20260510130115 | 8 | 6 | 1.6 | 6.4 | 0.00 | 0.00 | 0.00 | 53 | 991.8 |
| 20260510125611 | 8 | 225 | 3.2 | 4.8 | 0.00 | 0.00 | 0.00 | 57 | 991.4 |
| 20260510125108 | 8 | 45 | 3.2 | 8.0 | 0.00 | 0.00 | 0.00 | 54 | 991.7 |
| 20260510124604 | 8 | 311 | 1.6 | 3.2 | 0.00 | 0.00 | 0.00 | 58 | 991.8 |
| 20260510124101 | 7 | 86 | 4.8 | 4.8 | 0.00 | 0.00 | 0.00 | 60 | 991.6 |
| 20260510123556 | 7 | 63 | 0.0 | 4.8 | 0.00 | 0.00 | 0.00 | 59 | 991.6 |
| 20260510123053 | 7 | 286 | 3.2 | 3.2 | 0.00 | 0.00 | 0.00 | 61 | 991.3 |
| 20260510122549 | 6 | 277 | 0.0 | 4.8 | 0.00 | 0.00 | 0.00 | 62 | 991.4 |
| 20260510122045 | 6 | 297 | 1.6 | 3.2 | 0.00 | 0.00 | 0.00 | 64 | 991.4 |
| 20260510121542 | 6 | 145 | 0.0 | 0.0 | 0.00 | 0.00 | 0.00 | 64 | 991.2 |
| 20260510121039 | 6 | 121 | 0.0 | 0.0 | 0.00 | 0.00 | 0.00 | 65 | 991.1 |
| 20260510120537 | 6 | 307 | 0.0 | 3.2 | 0.00 | 0.00 | 0.00 | 67 | 991.0 |
| 20260510120032 | 6 | 165 | 0.0 | 3.2 | 0.00 | 0.00 | 0.00 | 65 | 990.9 |
| 20260510115529 | 5 | 90 | 0.0 | 4.8 | 0.00 | 0.00 | 0.00 | 71 | 990.9 |
| 20260510115026 | 5 | 251 | 0.0 | 4.8 | 0.00 | 0.00 | 0.00 | 69 | 990.9 |
| 20260510114522 | 5 | 286 | 0.0 | 0.0 | 0.00 | 0.00 | 0.00 | 71 | 990.9 |
| 20260510114018 | 5 | 90 | 0.0 | 1.6 | 0.00 | 0.00 | 0.00 | 71 | 990.9 |
| 20260510113514 | 5 | 285 | 0.0 | 0.0 | 0.00 | 0.00 | 0.00 | 69 | 990.9 |
| 20260510113012 | 5 | 300 | 0.0 | 3.2 | 0.00 | 0.00 | 0.00 | 70 | 990.8 |
| 20260510112508 | 4 | 18 | 0.0 | 3.2 | 0.00 | 0.00 | 0.00 | 71 | 990.8 |
| 20260510112004 | 3 | 337 | 0.0 | 1.6 | 0.00 | 0.00 | 0.00 | 77 | 990.7 |
| 20260510111501 | 3 | 145 | 0.0 | 0.0 | 0.00 | 0.00 | 0.00 | 79 | 990.7 |
| 20260510110957 | 3 | 90 | 0.0 | 3.2 | 0.00 | 0.00 | 0.00 | 78 | 990.6 |
| 20260510110453 | 3 | 98 | 0.0 | 1.6 | 0.00 | 0.00 | 0.00 | 82 | 990.5 |
| 20260510105949 | 2 | 90 | 0.0 | 1.6 | 0.00 | 0.00 | 0.00 | 84 | 990.5 |
| 20260510105445 | 2 | 90 | 0.0 | 1.6 | 0.00 | 0.00 | 0.00 | 84 | 990.2 |
| 20260510104940 | 2 | 90 | 0.0 | 0.0 | 0.00 | 0.00 | 0.00 | 86 | 990.2 |
| 20260510104437 | 2 | 120 | 0.0 | 1.6 | 0.00 | 0.00 | 0.00 | 85 | 990.1 |
| 20260510103933 | 2 | 106 | 0.0 | 0.0 | 0.00 | 0.00 | 0.00 | 85 | 990.2 |
| 20260510103431 | 2 | 114 | 1.6 | 3.2 | 0.00 | 0.00 | 0.00 | 84 | 990.0 |
| 20260510102926 | 2 | 106 | 0.0 | 1.6 | 0.00 | 0.00 | 0.00 | 85 | 990.0 |
| 20260510102422 | 2 | 106 | 0.0 | 1.6 | 0.00 | 0.00 | 0.00 | 85 | 990.1 |
| 20260510101919 | 2 | 106 | 0.0 | 0.0 | 0.00 | 0.00 | 0.00 | 84 | 990.0 |
| 20260510101417 | 2 | 98 | 0.0 | 1.6 | 0.00 | 0.00 | 0.00 | 83 | 990.0 |
| 20260510100914 | 2 | 98 | 0.0 | 0.0 | 0.00 | 0.00 | 0.00 | 83 | 989.9 |
| 20260510100411 | 2 | 165 | 0.0 | 0.0 | 0.00 | 0.00 | 0.00 | 83 | 989.9 |
| 20260510095907 | 3 | 165 | 0.0 | 0.0 | 0.00 | 0.00 | 0.00 | 81 | 989.6 |
| 20260510095403 | 3 | 117 | 0.0 | 1.6 | 0.00 | 0.00 | 0.00 | 81 | 989.5 |
| 20260510094902 | 3 | 35 | 0.0 | 0.0 | 0.00 | 0.00 | 0.00 | 80 | 989.6 |
| 20260510094357 | 3 | 90 | 0.0 | 0.0 | 0.00 | 0.00 | 0.00 | 79 | 989.6 |
| 20260510093854 | 3 | 90 | 0.0 | 1.6 | 0.00 | 0.00 | 0.00 | 80 | 989.5 |
| 20260510093349 | 3 | 165 | 0.0 | 0.0 | 0.00 | 0.00 | 0.00 | 79 | 989.3 |
| 20260510092846 | 3 | 90 | 0.0 | 0.0 | 0.00 | 0.00 | 0.00 | 78 | 989.2 |
| 20260510092342 | 3 | 257 | 0.0 | 0.0 | 0.00 | 0.00 | 0.00 | 78 | 989.1 |
| 20260510091838 | 3 | 257 | 0.0 | 0.0 | 0.00 | 0.00 | 0.00 | 79 | 989.2 |
| 20260510091335 | 3 | 206 | 0.0 | 1.6 | 0.00 | 0.00 | 0.00 | 77 | 989.2 |
| 20260510090832 | 4 | 15 | 0.0 | 1.6 | 0.00 | 0.00 | 0.00 | 76 | 988.9 |
| 20260510090328 | 3 | 337 | 0.0 | 1.6 | 0.00 | 0.00 | 0.00 | 78 | 988.9 |
| 20260510085824 | 3 | 300 | 0.0 | 1.6 | 0.00 | 0.00 | 0.00 | 79 | 988.8 |
| 20260510085318 | 4 | 7 | 0.0 | 0.0 | 0.00 | 0.00 | 0.00 | 81 | 988.8 |
| 20260510084814 | 4 | 106 | 0.0 | 1.6 | 0.00 | 0.00 | 0.00 | 75 | 988.6 |
| 20260510084311 | 4 | 151 | 0.0 | 3.2 | 0.00 | 0.00 | 0.00 | 74 | 988.5 |
| 20260510083808 | 5 | 106 | 0.0 | 0.0 | 0.00 | 0.00 | 0.00 | 74 | 988.6 |
| 20260510083305 | 5 | 294 | 0.0 | 1.6 | 0.00 | 0.00 | 0.00 | 72 | 988.4 |
| 20260510082800 | 5 | 270 | 0.0 | 1.6 | 0.00 | 0.00 | 0.00 | 71 | 988.4 |
| 20260510082257 | 5 | 290 | 0.0 | 3.2 | 0.00 | 0.00 | 0.00 | 71 | 988.2 |
| 20260510081756 | 5 | 300 | 0.0 | 3.2 | 0.00 | 0.00 | 0.00 | 70 | 988.1 |
| 20260510081252 | 5 | 346 | 0.0 | 4.8 | 0.00 | 0.00 | 0.00 | 70 | 988.1 |
| 20260510080748 | 5 | 14 | 0.0 | 3.2 | 0.00 | 0.00 | 0.00 | 70 | 988.2 |
| 20260510080243 | 5 | 303 | 0.0 | 3.2 | 0.00 | 0.00 | 0.00 | 70 | 987.9 |
| 20260510075741 | 5 | 345 | 0.0 | 1.6 | 0.00 | 0.00 | 0.00 | 69 | 988.0 |
| 20260510075238 | 5 | 350 | 0.0 | 3.2 | 0.00 | 0.00 | 0.00 | 68 | 987.8 |
| 20260510074735 | 5 | 5 | 0.0 | 1.6 | 0.00 | 0.00 | 0.00 | 68 | 987.7 |
| 20260510074232 | 6 | 15 | 0.0 | 0.0 | 0.00 | 0.00 | 0.00 | 69 | 987.6 |
| 20260510073728 | 6 | 291 | 0.0 | 1.6 | 0.00 | 0.00 | 0.00 | 67 | 987.6 |
| 20260510073224 | 6 | 278 | 0.0 | 0.0 | 0.00 | 0.00 | 0.00 | 69 | 987.4 |
| 20260510072720 | 6 | 26 | 0.0 | 0.0 | 0.00 | 0.00 | 0.00 | 66 | 987.7 |
| 20260510072216 | 6 | 354 | 1.6 | 1.6 | 0.00 | 0.00 | 0.00 | 66 | 987.4 |
| 20260510071713 | 6 | 29 | 0.0 | 3.2 | 0.00 | 0.00 | 0.00 | 65 | 987.3 |
| 20260510071210 | 6 | 270 | 0.0 | 1.6 | 0.00 | 0.00 | 0.00 | 65 | 987.1 |
| 20260510070708 | 6 | 300 | 1.6 | 1.6 | 0.00 | 0.00 | 0.00 | 64 | 986.9 |
| 20260510070205 | 6 | 270 | 1.6 | 1.6 | 0.00 | 0.00 | 0.00 | 64 | 987.1 |
| 20260510065700 | 6 | 0 | 0.0 | 1.6 | 0.00 | 0.00 | 0.00 | 66 | 987.1 |
| 20260510065157 | 6 | 306 | 0.0 | 0.0 | 0.00 | 0.00 | 0.00 | 71 | 987.1 |
| 20260510064654 | 6 | 306 | 0.0 | 0.0 | 0.00 | 0.00 | 0.00 | 68 | 986.9 |
| 20260510064151 | 6 | 35 | 0.0 | 0.0 | 0.00 | 0.00 | 0.00 | 64 | 987.0 |
| 20260510063648 | 7 | 35 | 0.0 | 0.0 | 0.00 | 0.00 | 0.00 | 66 | 986.8 |
| 20260510063144 | 7 | 35 | 0.0 | 0.0 | 0.00 | 0.00 | 0.00 | 64 | 986.7 |
| 20260510062641 | 7 | 26 | 0.0 | 1.6 | 0.00 | 0.00 | 0.00 | 64 | 986.6 |
| 20260510062137 | 7 | 354 | 0.0 | 0.0 | 0.00 | 0.00 | 0.00 | 65 | 986.6 |
| 20260510061632 | 7 | 243 | 0.0 | 1.6 | 0.00 | 0.00 | 0.00 | 66 | 986.5 |
| 20260510061130 | 7 | 69 | 0.0 | 1.6 | 0.00 | 0.00 | 0.00 | 65 | 986.4 |
| 20260510060625 | 7 | 15 | 0.0 | 1.6 | 0.00 | 0.00 | 0.00 | 66 | 986.2 |
| 20260510060121 | 7 | 270 | 0.0 | 3.2 | 0.00 | 0.00 | 0.00 | 65 | 986.2 |
| 20260510055618 | 8 | 353 | 0.0 | 1.6 | 0.00 | 0.00 | 0.00 | 65 | 986.2 |
| 20260510055116 | 8 | 32 | 0.0 | 0.0 | 0.00 | 0.00 | 0.00 | 64 | 986.5 |
| 20260510054611 | 8 | 23 | 0.0 | 4.8 | 0.00 | 0.00 | 0.00 | 63 | 986.2 |
| 20260510054106 | 8 | 354 | 0.0 | 6.4 | 0.00 | 0.00 | 0.00 | 62 | 986.1 |
| 20260510053601 | 8 | 68 | 8.0 | 14.5 | 0.00 | 0.00 | 0.00 | 64 | 986.1 |
| 20260510053058 | 8 | 99 | 0.0 | 1.6 | 0.00 | 0.00 | 0.00 | 65 | 986.1 |
| 20260510052554 | 8 | 90 | 1.6 | 1.6 | 0.00 | 0.00 | 0.00 | 67 | 985.7 |
| 20260510052050 | 8 | 96 | 0.0 | 3.2 | 0.00 | 0.00 | 0.00 | 66 | 985.9 |
| 20260510051546 | 8 | 234 | 0.0 | 1.6 | 0.00 | 0.00 | 0.00 | 67 | 985.6 |
| 20260510051042 | 8 | 217 | 0.0 | 0.0 | 0.00 | 0.00 | 0.00 | 66 | 985.6 |
| 20260510050539 | 8 | 172 | 0.0 | 0.0 | 0.00 | 0.00 | 0.00 | 67 | 985.5 |
| 20260510050036 | 8 | 209 | 0.0 | 3.2 | 0.00 | 0.00 | 0.00 | 68 | 985.3 |
| 20260510045534 | 8 | 74 | 0.0 | 0.0 | 0.00 | 0.00 | 0.00 | 66 | 985.4 |
| 20260510045030 | 8 | 261 | 0.0 | 3.2 | 0.00 | 0.00 | 0.00 | 67 | 985.1 |
| 20260510044527 | 8 | 165 | 0.0 | 0.0 | 0.00 | 0.00 | 0.00 | 66 | 985.1 |
| 20260510044025 | 8 | 188 | 0.0 | 1.6 | 0.00 | 0.00 | 0.00 | 69 | 984.9 |
| 20260510043520 | 8 | 203 | 0.0 | 1.6 | 0.00 | 0.00 | 0.00 | 68 | 985.2 |
| 20260510043015 | 9 | 188 | 0.0 | 0.0 | 0.00 | 0.00 | 0.00 | 69 | 984.9 |
| 20260510042510 | 9 | 165 | 0.0 | 0.0 | 0.00 | 0.00 | 0.00 | 66 | 985.0 |
| 20260510042010 | 9 | 74 | 0.0 | 1.6 | 0.00 | 0.00 | 0.00 | 65 | 984.7 |
| 20260510041508 | 10 | 126 | 0.0 | 3.2 | 0.00 | 0.00 | 0.00 | 65 | 984.7 |
| 20260510041005 | 10 | 81 | 0.0 | 0.0 | 0.00 | 0.00 | 0.00 | 64 | 984.8 |
| 20260510040501 | 10 | 356 | 0.0 | 0.0 | 0.00 | 0.00 | 0.00 | 65 | 984.8 |
| 20260510035957 | 10 | 356 | 0.0 | 0.0 | 0.00 | 0.18 | 0.18 | 63 | 984.7 |
| 20260510035454 | 10 | 106 | 0.0 | 0.0 | 0.00 | 0.18 | 0.18 | 64 | 984.3 |
| 20260510034953 | 10 | 106 | 0.0 | 1.6 | 0.00 | 0.18 | 0.18 | 61 | 984.5 |
| 20260510034453 | 11 | 120 | 0.0 | 0.0 | 0.00 | 0.18 | 0.18 | 60 | 984.3 |
| 20260510033948 | 11 | 180 | 0.0 | 3.2 | 0.00 | 0.18 | 0.18 | 60 | 984.2 |
| 20260510033445 | 11 | 63 | 0.0 | 3.2 | 0.00 | 0.18 | 0.18 | 59 | 984.2 |
| 20260510032942 | 11 | 286 | 0.0 | 1.6 | 0.00 | 0.18 | 0.18 | 58 | 984.1 |
| 20260510032439 | 11 | 294 | 0.0 | 3.2 | 0.00 | 0.18 | 0.18 | 58 | 984.1 |
| 20260510031939 | 11 | 78 | 1.6 | 3.2 | 0.00 | 0.18 | 0.18 | 57 | 983.9 |
| 20260510031435 | 12 | 172 | 0.0 | 3.2 | 0.00 | 0.18 | 0.18 | 56 | 983.9 |
| 20260510030930 | 12 | 63 | 4.8 | 4.8 | 0.00 | 0.18 | 0.18 | 55 | 983.9 |
| 20260510030426 | 12 | 259 | 3.2 | 3.2 | 0.00 | 0.18 | 0.18 | 54 | 983.8 |
| 20260510025924 | 12 | 0 | 0.0 | 6.4 | 0.00 | 0.18 | 0.18 | 54 | 983.6 |
| 20260510025421 | 12 | 0 | 1.6 | 4.8 | 0.00 | 0.18 | 0.18 | 53 | 983.6 |
| 20260510024918 | 13 | 26 | 0.0 | 0.0 | 0.00 | 0.18 | 0.18 | 53 | 983.5 |
| 20260510024415 | 13 | 14 | 1.6 | 3.2 | 0.00 | 0.18 | 0.18 | 52 | 983.5 |
| 20260510023911 | 13 | 90 | 1.6 | 4.8 | 0.00 | 0.18 | 0.18 | 52 | 983.4 |
| 20260510023407 | 13 | 289 | 0.0 | 4.8 | 0.00 | 0.18 | 0.18 | 52 | 983.2 |
| 20260510022904 | 13 | 66 | 0.0 | 1.6 | 0.00 | 0.18 | 0.18 | 51 | 983.3 |
| 20260510022403 | 13 | 312 | 3.2 | 3.2 | 0.00 | 0.18 | 0.18 | 50 | 983.1 |
| 20260510021902 | 13 | 326 | 4.8 | 4.8 | 0.00 | 0.18 | 0.18 | 51 | 983.1 |
| 20260510021401 | 13 | 337 | 0.0 | 3.2 | 0.00 | 0.18 | 0.18 | 51 | 982.7 |
| 20260510020857 | 13 | 8 | 0.0 | 1.6 | 0.00 | 0.18 | 0.18 | 49 | 982.8 |
| 20260510020353 | 13 | 218 | 3.2 | 4.8 | 0.00 | 0.18 | 0.18 | 49 | 982.6 |
| 20260510015848 | 13 | 282 | 0.0 | 3.2 | 0.00 | 0.18 | 0.18 | 49 | 982.5 |
| 20260510015344 | 13 | 297 | 3.2 | 6.4 | 0.00 | 0.18 | 0.18 | 48 | 982.5 |
| 20260510014840 | 14 | 313 | 4.8 | 4.8 | 0.00 | 0.18 | 0.18 | 48 | 982.3 |
| 20260510014337 | 14 | 285 | 3.2 | 4.8 | 0.00 | 0.18 | 0.18 | 48 | 982.2 |
| 20260510013833 | 14 | 286 | 4.8 | 8.0 | 0.00 | 0.18 | 0.18 | 46 | 982.0 |
| 20260510013329 | 14 | 348 | 1.6 | 8.0 | 0.00 | 0.18 | 0.18 | 47 | 981.8 |
| 20260510012824 | 15 | 300 | 0.0 | 6.4 | 0.00 | 0.18 | 0.18 | 47 | 981.7 |
| 20260510012323 | 15 | 120 | 0.0 | 3.2 | 0.00 | 0.18 | 0.18 | 46 | 981.4 |
| 20260510011818 | 15 | 342 | 8.0 | 12.9 | 0.00 | 0.18 | 0.18 | 45 | 981.2 |
| 20260510011314 | 15 | 262 | 0.0 | 6.4 | 0.00 | 0.18 | 0.18 | 47 | 981.2 |
| 20260510010811 | 15 | 284 | 4.8 | 4.8 | 0.00 | 0.18 | 0.18 | 50 | 980.7 |
| 20260510010308 | 15 | 354 | 0.0 | 1.6 | 0.00 | 0.18 | 0.18 | 51 | 980.6 |
| 20260510005805 | 15 | 294 | 0.0 | 6.4 | 0.00 | 0.18 | 0.18 | 48 | 980.5 |
| 20260510005300 | 15 | 0 | 1.6 | 3.2 | 0.00 | 0.18 | 0.18 | 49 | 980.6 |
| 20260510004759 | 15 | 215 | 0.0 | 3.2 | 0.00 | 0.18 | 0.18 | 51 | 980.4 |
| 20260510004256 | 15 | 294 | 3.2 | 3.2 | 0.00 | 0.18 | 0.18 | 52 | 980.5 |
| 20260510003753 | 15 | 276 | 0.0 | 0.0 | 0.00 | 0.18 | 0.18 | 55 | 980.2 |
| 20260510003250 | 15 | 270 | 0.0 | 1.6 | 0.00 | 0.18 | 0.18 | 54 | 980.3 |
| 20260510002748 | 15 | 23 | 0.0 | 1.6 | 0.00 | 0.18 | 0.18 | 54 | 980.1 |
| 20260510002246 | 16 | 278 | 0.0 | 3.2 | 0.00 | 0.18 | 0.18 | 51 | 980.0 |
| 20260510001743 | 16 | 278 | 0.0 | 3.2 | 0.00 | 0.18 | 0.18 | 53 | 980.0 |
| 20260510001241 | 16 | 275 | 3.2 | 3.2 | 0.00 | 0.18 | 0.18 | 51 | 979.8 |
| 20260510000737 | 16 | 270 | 0.0 | 0.0 | 0.00 | 0.18 | 0.18 | 52 | 979.7 |
| 20260510000234 | 16 | 285 | 0.0 | 3.2 | 0.00 | 0.18 | 0.18 | 50 | 979.7 |
| 20260509235731 | 16 | 180 | 0.0 | 3.2 | 0.00 | 0.18 | 0.18 | 50 | 979.5 |
| 20260509235227 | 16 | 264 | 1.6 | 4.8 | 0.00 | 0.18 | 0.18 | 49 | 979.5 |
| 20260509234723 | 16 | 353 | 0.0 | 3.2 | 0.00 | 0.18 | 0.18 | 49 | 979.6 |
| 20260509234221 | 16 | 283 | 0.0 | 4.8 | 0.00 | 0.18 | 0.18 | 50 | 979.4 |
| 20260509233720 | 16 | 286 | 3.2 | 4.8 | 0.00 | 0.18 | 0.18 | 49 | 979.2 |
| 20260509233217 | 16 | 311 | 0.0 | 4.8 | 0.00 | 0.18 | 0.18 | 48 | 979.3 |
| 20260509232713 | 17 | 279 | 0.0 | 4.8 | 0.00 | 0.18 | 0.18 | 48 | 979.3 |
| 20260509232210 | 17 | 248 | 0.0 | 6.4 | 0.00 | 0.18 | 0.18 | 47 | 979.2 |